SCP
0 0 0 0 0 0 0 0 0 -0 0 0 0 0 0 -0 -0 0 0 0 0 0
0 0 0 0 1 0 0 0 0 0 0 0 0 0 0 -0 0 0 0 -0 -0 0
0 0 0 1 1 0 1 0 0 -0 -0 0 -0 0 0 -0 0 -0 -0 0 0 0
-0 -0 0 1 1 1 1 1 0 -0 -0 -0 -0 -0 -0 -0 -0 -0 0 -0 -0 -0
-1 -1 -1 -0 0 1 1 1 1 0 -0 -0 -0 -0 0 -0 -0 -0 0 -0 0 -0
-1 -1 -1 -1 -0 0 1 1 1 0 0 -0 -0 -0 -0 -0 -0 -0 0 -0 0 0
-2 -1 -1 -1 -1 -1 0 1 1 1 0 0 -0 0 -0 -0 -0 0 0 -0 -0 0
-1 -1 -1 -1 -1 -1 -1 -0 1 1 1 0 0 -0 0 0 0 0 0 0 0 0
0 -0 -1 -1 -1 -1 -1 -1 -0 0 1 0 0 0 0 0 0 0 0 0 0 0
1 0 0 -0 -0 -1 -1 -1 -0 -0 0 0 0 0 0 0 1 1 1 1 1 1
2 1 1 1 0 0 0 0 -0 -0 -0 0 0 0 0 0 1 1 1 1 1 1
1 1 2 1 1 1 1 1 1 1 0 0 0 0 0 0 1 1 1 1 1 1
3 3 3 2 3 3 2 2 3 2 2 1 1 0 0 0 2 2 2 2 2 1
1 3 4 5 4 3 3 4 4 5 3 3 2 3 0 0 3 4 4 5 4 4
Wind_Speed_500mb
87 84 79 72 65 56 54 48 47 49 45 43 38 37 31 30 30 27 26 24 26 23
91 91 87 78 67 64 59 54 52 52 53 47 43 41 36 33 31 30 30 29 27 28
88 88 88 83 75 67 65 59 58 55 54 51 48 45 42 37 34 36 35 34 33 32
93 94 92 89 79 70 65 62 62 62 59 59 54 51 48 45 40 41 39 39 37 35
93 93 93 92 84 75 70 65 62 64 65 66 63 59 55 51 49 49 47 43 42 40
105 102 101 95 90 82 76 72 69 66 72 70 71 68 61 57 55 54 52 46 44 44
107 109 103 97 91 88 82 78 75 74 70 72 75 75 70 66 63 60 58 54 49 47
95 100 99 97 93 89 88 84 80 79 75 75 78 81 81 75 73 67 64 61 57 55
90 93 96 95 91 88 90 88 88 87 84 82 87 89 87 81 82 76 71 69 64 62
89 92 89 90 89 90 90 90 94 92 92 92 90 94 92 89 86 84 81 75 70 67
92 92 90 88 88 91 92 95 98 98 96 95 95 95 96 92 88 92 87 81 77 73
89 92 93 93 91 94 94 96 99 100 98 97 98 99 94 90 93 97 96 88 84 78
87 90 91 91 93 93 93 93 95 99 102 101 99 99 97 88 87 96 100 98 90 84
77 78 80 82 84 83 85 82 95 102 103 102 101 99 98 94 91 96 102 104 96 92
Wind_Direction_500mb
234 236 236 238 238 236 236 236 229 224 230 240 250 250 250 242 230 230 233 234 233 234
234 235 237 237 238 237 238 237 236 234 235 237 242 245 242 239 232 231 231 231 234 234
234 235 236 238 238 237 237 235 237 234 234 233 236 236 236 238 232 230 231 234 236 238
236 235 235 237 237 236 237 234 234 234 233 231 233 234 235 235 234 233 232 233 236 236
235 238 238 237 237 234 234 233 233 234 233 231 231 233 234 234 233 231 230 231 234 237
236 237 239 239 237 236 234 234 232 234 232 230 228 231 233 234 233 233 231 231 234 238
236 238 239 240 238 237 234 233 234 234 236 231 229 230 234 233 231 230 231 232 234 237
239 238 239 240 239 236 234 232 233 235 236 235 232 230 232 231 232 232 233 234 236 236
239 238 237 237 237 236 234 232 231 232 234 236 233 231 231 232 233 234 234 236 237 239
239 239 239 237 236 235 233 231 231 231 232 235 236 234 232 231 234 236 237 238 238 240
237 239 239 235 234 234 231 229 230 231 231 235 238 238 235 234 235 240 240 241 243 244
240 240 239 238 235 232 230 230 230 234 236 236 238 241 241 238 237 241 243 243 244 243
244 242 242 243 241 235 233 232 232 233 237 239 241 244 245 243 242 243 246 246 244 243
249 247 247 246 243 242 241 235 232 233 236 240 243 244 246 244 242 243 244 245 243 241
Wind_Speed_850mb
87 84 79 72 65 56 54 48 47 49 45 43 38 37 31 30 30 27 26 24 26 23
91 91 87 78 67 64 59 54 52 52 53 47 43 41 36 33 31 30 30 29 27 28
88 88 88 83 75 67 65 59 58 55 54 51 48 45 42 37 34 36 35 34 33 32
93 94 92 89 79 70 65 62 62 62 59 59 54 51 48 45 40 41 39 39 37 35
93 93 93 92 84 75 70 65 62 64 65 66 63 59 55 51 49 49 47 43 42 40
105 102 101 95 90 82 76 72 69 66 72 70 71 68 61 57 55 54 52 46 44 44
107 109 103 97 91 88 82 78 75 74 70 72 75 75 70 66 63 60 58 54 49 47
95 100 99 97 93 89 88 84 80 79 75 75 78 81 81 75 73 67 64 61 57 55
90 93 96 95 91 88 90 88 88 87 84 82 87 89 87 81 82 76 71 69 64 62
89 92 89 90 89 90 90 90 94 92 92 92 90 94 92 89 86 84 81 75 70 67
92 92 90 88 88 91 92 95 98 98 96 95 95 95 96 92 88 92 87 81 77 73
89 92 93 93 91 94 94 96 99 100 98 97 98 99 94 90 93 97 96 88 84 78
87 90 91 91 93 93 93 93 95 99 102 101 99 99 97 88 87 96 100 98 90 84
77 78 80 82 84 83 85 82 95 102 103 102 101 99 98 94 91 96 102 104 96 92
Wind_Direction_850mb
234 236 236 238 238 236 236 236 229 224 230 240 250 250 250 242 230 230 233 234 233 234
234 235 237 237 238 237 238 237 236 234 235 237 242 245 242 239 232 231 231 231 234 234
234 235 236 238 238 237 237 235 237 234 234 233 236 236 236 238 232 230 231 234 236 238
236 235 235 237 237 236 237 234 234 234 233 231 233 234 235 235 234 233 232 233 236 236
235 238 238 237 237 234 234 233 233 234 233 231 231 233 234 234 233 231 230 231 234 237
236 237 239 239 237 236 234 234 232 234 232 230 228 231 233 234 233 233 231 231 234 238
236 238 239 240 238 237 234 233 234 234 236 231 229 230 234 233 231 230 231 232 234 237
239 238 239 240 239 236 234 232 233 235 236 235 232 230 232 231 232 232 233 234 236 236
239 238 237 237 237 236 234 232 231 232 234 236 233 231 231 232 233 234 234 236 237 239
239 239 239 237 236 235 233 231 231 231 232 235 236 234 232 231 234 236 237 238 238 240
237 239 239 235 234 234 231 229 230 231 231 235 238 238 235 234 235 240 240 241 243 244
240 240 239 238 235 232 230 230 230 234 236 236 238 241 241 238 237 241 243 243 244 243
244 242 242 243 241 235 233 232 232 233 237 239 241 244 245 243 242 243 246 246 244 243
249 247 247 246 243 242 241 235 232 233 236 240 243 244 246 244 242 243 244 245 243 241